This is the latest recevied weather packets stored in our database for station/object AB2HM. If no packets are shown the sender has not sent any weather packets the latest 10 day(s).
| Time | Temp. | Humidity | Pressure | Rain* | Wind** | Luminosity | Snow |
|---|---|---|---|---|---|---|---|
| 1788401957 | 23.33° C | 89% | 1019.5 hPa | 0 mm | - | - | - |
| 1788400144 | 23.33° C | 88% | 1019.6 hPa | 0 mm | - | - | - |
| 1788398335 | 23.33° C | 88% | 1019.7 hPa | 0 mm | - | - | - |
| 1788396530 | 23.89° C | 88% | 1019.8 hPa | 0 mm | - | - | - |
| 1788394720 | 23.89° C | 87% | 1019.6 hPa | 0 mm | - | - | - |
| 1788392917 | 23.89° C | 87% | 1019.3 hPa | 0 mm | - | - | - |
| 1788391108 | 23.89° C | 87% | 1019.4 hPa | 0 mm | - | - | - |
| 1788389285 | 24.44° C | 87% | 1019.7 hPa | 0 mm | - | - | - |
| 1788387482 | 24.44° C | 87% | 1020 hPa | 0 mm | - | - | - |
| 1788385675 | 24.44° C | 88% | 1019.7 hPa | 0 mm | - | - | - |
| 1788383866 | 24.44° C | 89% | 1019.5 hPa | 0 mm | - | - | - |
| 1788382064 | 24.44° C | 90% | 1019.9 hPa | 0 mm | - | - | - |
| 1788380261 | 24.44° C | 90% | 1019.6 hPa | 0 mm | - | - | - |
| 1788378458 | 24.44° C | 90% | 1019.9 hPa | 0 mm | - | - | - |
| 1788376649 | 24.44° C | 89% | 1020 hPa | 0.76 mm | - | - | - |
| 1788374842 | 24.44° C | 88% | 1020.3 hPa | 1.27 mm | - | - | - |
| 1788373043 | 25° C | 85% | 1020.3 hPa | 0.51 mm | - | - | - |
| 1788371237 | 25.56° C | 82% | 1021.2 hPa | 0 mm | - | - | - |
| 1788369433 | 25.56° C | 82% | 1021.5 hPa | 0.25 mm | - | - | - |
| 1788367623 | 25.56° C | 83% | 1021.1 hPa | 0.25 mm | - | - | - |
| 1788365814 | 24.44° C | 87% | 1021.2 hPa | 0 mm | - | - | - |
| 1788364007 | 24.44° C | 88% | 1021.3 hPa | 0 mm | - | - | - |
| 1788362202 | 23.89° C | 90% | 1021.1 hPa | 0 mm | - | - | - |
| 1788360393 | 23.33° C | 91% | 1021.4 hPa | 0 mm | - | - | - |
| 1788358583 | 23.33° C | 93% | 1021.2 hPa | 0 mm | - | - | - |
* Rain latest hour (hover to see other rain measurements)
** Current wind speed in m/s (hover to see current wind gust speed)